sat.trackr.live / text

‹ back to catalog

KUIPER-00621

NORAD 69778 · 2026-151R

PAYLOAD ACTIVE UNKNOWN

§ Identity

Operator
Country
US
Launch date
2026-07-02
Launch site
AFETR
Launch vehicle
Mass (kg)
RCS (m²)

External: N2YO · Heavens-Above · Gunter

§ Orbital elements

Epoch: 2026-09-19T15:07:34.863168Z

Period
97.30 min
Inclination
51.9020°
Eccentricity
0.0000731
Mean motion
14.79938079 rev/d
Perigee alt
629.0 km
Apogee alt
630.0 km
Semi-major
7,007.7 km
B*
-7.5861e-5
RAAN
233.0391°
Arg perigee
96.1022°
Mean anomaly
264.0024°
Rev number
1,204

§ Raw data

KUIPER-006211 69778U 26151R   26262.63026462 -.00000799  00000+0 -75861-4 0  99962 69778  51.9020 233.0391 0000731  96.1022 264.0024 14.79938079 12040

JSON: /api/v1/satellites/69778 · /tle

For live sub-satellite position, see the globe view (requires WebGL).

§ Visibility from observer

Set your observer location to see the next 7 days of passes ≥ 10°. The values pass through the URL so the page stays shareable.

No JS? Fill the form by hand. The geolocation button needs JavaScript.